Visibility
9.2 15.0 12.0 9.0 5.2 10.1 12.0 14.4 15.0 15.0 15.0 15.0 15.0 15.0 15.0 15.0 15.0 15.0 15.0 15.0 15.0 15.0 13.9 15.0 15.0 15.0 15.0 15.0 15.0 15.0 15.0 15.0 15.0 15.0 15.0 13.3 13.8 12.8 13.7 15.0 15.0 14.2 11.0 7.6 12.9 15.0 5.7
12.5 8.8 10.0 13.1 7.8 7.0 5.9 4.8 15.0 15.0 15.0 15.0 15.0 15.0 15.0 15.0 15.0 15.0 15.0 15.0 15.0 15.0 8.6 15.0 15.0 15.0 15.0 15.0 15.0 15.0 15.0 15.0 15.0 13.2 14.1 6.7 15.0 15.0 12.8 15.0 15.0 15.0 15.0 11.5 1.9 14.2 7.0
15.0 14.9 8.7 9.2 14.6 6.7 7.1 3.9 15.0 15.0 15.0 15.0 15.0 15.0 15.0 15.0 15.0 15.0 15.0 15.0 15.0 15.0 14.7 15.0 15.0 15.0 15.0 15.0 15.0 15.0 15.0 14.1 15.0 15.0 15.0 14.6 9.7 6.5 7.0 15.0 15.0 15.0 15.0 15.0 14.2 4.4 13.0
15.0 15.0 15.0 14.5 10.9 7.5 6.0 7.7 4.3 10.7 15.0 15.0 15.0 15.0 15.0 15.0 15.0 15.0 15.0 15.0 15.0 15.0 15.0 15.0 15.0 15.0 15.0 15.0 15.0 15.0 15.0 15.0 15.0 15.0 15.0 15.0 5.7 13.8 2.8 6.9 15.0 15.0 4.8 0.4 5.3 1.6 13.3
15.0 15.0 15.0 15.0 15.0 8.9 8.6 15.0 7.2 11.8 15.0 15.0 15.0 15.0 15.0 15.0 15.0 15.0 15.0 15.0 15.0 15.0 15.0 15.0 15.0 15.0 15.0 15.0 15.0 15.0 15.0 15.0 15.0 13.5 15.0 15.0 11.3 3.1 15.0 7.2 12.9 12.4 3.2 5.3 0.1 4.9 9.6
15.0 15.0 15.0 15.0 15.0 10.4 6.0 10.1 14.5 5.7 14.3 15.0 15.0 15.0 15.0 15.0 15.0 15.0 15.0 15.0 15.0 15.0 15.0 15.0 15.0 15.0 15.0 15.0 15.0 15.0 15.0 15.0 15.0 15.0 15.0 12.3 7.2 0.1 0.7 0.1 0.3 0.4 10.0 15.0 1.4 4.6 7.2
15.0 15.0 15.0 15.0 15.0 15.0 5.5 13.7 5.0 6.1 13.4 15.0 15.0 15.0 15.0 15.0 15.0 15.0 15.0 15.0 15.0 15.0 15.0 15.0 15.0 15.0 15.0 15.0 15.0 15.0 15.0 15.0 15.0 15.0 15.0 4.8 0.8 0.0 0.1 2.0 15.0 15.0 15.0 15.0 11.5 15.0 15.0
15.0 15.0 15.0 15.0 15.0 15.0 5.9 13.1 5.4 3.7 11.4 15.0 15.0 15.0 15.0 15.0 15.0 15.0 15.0 15.0 15.0 15.0 15.0 15.0 15.0 15.0 15.0 15.0 15.0 15.0 15.0 15.0 13.2 0.0 0.1 0.0 1.1 9.6 5.0 10.7 12.2 9.5 15.0 15.0 15.0 15.0 15.0
15.0 15.0 15.0 15.0 15.0 15.0 5.3 14.5 4.3 3.8 6.5 15.0 15.0 15.0 15.0 15.0 15.0 15.0 15.0 15.0 15.0 15.0 15.0 15.0 15.0 15.0 15.0 15.0 15.0 15.0 15.0 11.7 0.6 0.0 0.0 0.1 11.6 13.3 5.7 13.5 15.0 14.8 15.0 15.0 8.8 4.5 15.0
15.0 15.0 15.0 15.0 15.0 15.0 14.5 5.4 7.1 5.1 7.1 15.0 15.0 15.0 15.0 15.0 15.0 15.0 15.0 15.0 15.0 15.0 15.0 15.0 15.0 15.0 15.0 15.0 15.0 15.0 15.0 13.0 0.8 0.0 0.1 0.1 14.2 15.0 4.0 14.8 15.0 15.0 15.0 15.0 15.0 3.8 0.0
15.0 15.0 14.9 15.0 12.9 15.0 6.7 4.4 4.6 3.7 6.0 15.0 15.0 15.0 15.0 15.0 15.0 15.0 15.0 15.0 15.0 15.0 15.0 15.0 15.0 15.0 15.0 15.0 15.0 15.0 15.0 14.7 0.8 0.1 14.0 0.1 15.0 15.0 15.0 15.0 15.0 15.0 15.0 15.0 14.7 15.0 0.2
15.0 14.5 15.0 15.0 15.0 6.3 11.0 3.0 14.5 4.8 7.6 15.0 15.0 15.0 15.0 15.0 15.0 15.0 15.0 15.0 15.0 15.0 13.4 15.0 15.0 15.0 15.0 15.0 15.0 15.0 15.0 9.3 5.4 14.1 15.0 7.7 15.0 15.0 15.0 15.0 15.0 15.0 10.9 15.0 15.0 10.0 0.3
15.0 15.0 13.4 15.0 15.0 12.0 15.0 2.2 14.8 5.3 7.0 15.0 15.0 15.0 15.0 15.0 15.0 15.0 15.0 15.0 15.0 15.0 15.0 15.0 15.0 15.0 15.0 15.0 15.0 15.0 15.0 15.0 0.3 10.6 1.5 11.2 0.6 15.0 15.0 15.0 15.0 15.0 15.0 0.0 0.1 0.1 10.6
15.0 15.0 15.0 15.0 7.3 15.0 10.4 2.7 15.0 4.7 8.8 15.0 15.0 15.0 15.0 15.0 15.0 15.0 15.0 15.0 14.8 14.4 15.0 15.0 15.0 15.0 15.0 15.0 15.0 15.0 15.0 15.0 15.0 15.0 15.0 0.2 0.1 15.0 15.0 15.0 0.1 15.0 13.3 13.2 0.3 4.1 15.0
12.5 7.4 7.8 6.5 11.1 11.7 4.2 3.0 13.9 4.7 12.8 15.0 15.0 15.0 15.0 15.0 15.0 15.0 15.0 13.7 15.0 15.0 15.0 15.0 15.0 15.0 15.0 15.0 15.0 15.0 15.0 15.0 15.0 15.0 2.5 15.0 13.0 15.0 15.0 15.0 6.4 13.3 15.0 15.0 15.0 15.0 15.0
6.5 3.2 4.9 8.9 4.5 7.7 4.8 3.7 6.0 4.7 15.0 15.0 15.0 15.0 15.0 15.0 15.0 15.0 15.0 15.0 15.0 15.0 15.0 15.0 15.0 15.0 15.0 15.0 15.0 15.0 15.0 15.0 15.0 15.0 15.0 15.0 3.3 15.0 15.0 15.0 15.0 15.0 15.0 15.0 15.0 15.0 15.0
7.3 4.5 5.3 4.4 5.1 5.9 3.1 3.6 3.2 11.2 15.0 15.0 15.0 11.1 15.0 15.0 15.0 15.0 7.8 15.0 15.0 15.0 15.0 15.0 15.0 15.0 15.0 15.0 15.0 15.0 15.0 15.0 15.0 15.0 15.0 15.0 15.0 12.2 14.5 15.0 15.0 15.0 15.0 15.0 15.0 15.0 15.0
15.0 4.2 7.3 4.8 14.8 4.5 2.5 2.9 4.7 13.6 15.0 15.0 15.0 0.2 15.0 15.0 2.3 7.7 14.8 15.0 15.0 15.0 15.0 15.0 15.0 15.0 15.0 15.0 15.0 15.0 15.0 15.0 15.0 15.0 15.0 15.0 15.0 15.0 15.0 15.0 15.0 15.0 15.0 15.0 15.0 15.0 15.0
15.0 4.4 4.1 7.1 15.0 3.2 2.5 3.1 8.5 15.0 15.0 8.9 6.4 2.2 15.0 15.0 12.8 10.3 15.0 15.0 15.0 15.0 15.0 15.0 15.0 15.0 15.0 15.0 15.0 15.0 15.0 15.0 15.0 15.0 15.0 15.0 15.0 15.0 15.0 15.0 15.0 15.0 15.0 15.0 15.0 15.0 15.0
15.0 3.7 4.5 2.9 1.4 3.0 2.4 4.6 12.9 15.0 15.0 15.0 15.0 0.2 1.1 9.1 15.0 15.0 15.0 15.0 15.0 15.0 15.0 15.0 15.0 15.0 15.0 15.0 15.0 15.0 15.0 15.0 15.0 15.0 15.0 15.0 15.0 15.0 15.0 15.0 15.0 15.0 15.0 15.0 15.0 15.0 15.0
15.0 3.2 3.2 3.8 4.9 2.1 3.2 4.2 13.3 15.0 15.0 15.0 15.0 15.0 11.3 0.5 4.0 15.0 15.0 15.0 15.0 15.0 15.0 15.0 15.0 15.0 15.0 15.0 15.0 15.0 15.0 15.0 15.0 15.0 15.0 15.0 15.0 15.0 15.0 15.0 15.0 15.0 15.0 15.0 15.0 15.0 15.0
15.0 4.0 2.4 2.9 1.5 2.4 2.5 5.3 15.0 15.0 15.0 15.0 15.0 15.0 15.0 15.0 15.0 8.3 15.0 15.0 15.0 15.0 15.0 15.0 15.0 15.0 15.0 15.0 15.0 15.0 15.0 15.0 15.0 15.0 15.0 15.0 15.0 15.0 15.0 15.0 15.0 15.0 15.0 15.0 15.0 15.0 15.0
15.0 8.8 4.2 3.7 4.3 1.8 2.6 8.4 15.0 15.0 15.0 15.0 15.0 15.0 15.0 15.0 15.0 15.0 15.0 15.0 15.0 15.0 15.0 15.0 15.0 15.0 15.0 15.0 15.0 15.0 15.0 15.0 15.0 15.0 15.0 15.0 15.0 15.0 15.0 15.0 15.0 15.0 15.0 15.0 15.0 15.0 15.0
11.4 8.3 6.0 4.4 6.1 10.0 3.0 8.9 11.4 15.0 15.0 15.0 15.0 15.0 15.0 15.0 15.0 15.0 15.0 15.0 15.0 15.0 15.0 15.0 15.0 15.0 15.0 15.0 15.0 15.0 15.0 15.0 15.0 15.0 15.0 15.0 15.0 15.0 15.0 15.0 15.0 15.0 15.0 15.0 15.0 15.0 15.0
14.5 7.0 4.0 5.4 2.9 6.6 7.0 7.7 5.3 15.0 15.0 15.0 15.0 15.0 15.0 15.0 15.0 15.0 15.0 15.0 15.0 15.0 15.0 15.0 15.0 15.0 15.0 15.0 15.0 15.0 15.0 15.0 15.0 15.0 15.0 15.0 15.0 15.0 15.0 15.0 15.0 15.0 15.0 15.0 15.0 15.0 15.0
15.0 8.6 4.4 7.2 3.1 5.3 13.4 9.7 15.0 15.0 15.0 15.0 15.0 15.0 15.0 15.0 15.0 15.0 15.0 15.0 15.0 15.0 15.0 15.0 15.0 15.0 15.0 15.0 15.0 15.0 15.0 15.0 15.0 15.0 15.0 15.0 15.0 15.0 15.0 15.0 15.0 15.0 15.0 15.0 15.0 15.0 15.0
15.0 15.0 12.1 15.0 4.2 13.2 8.1 7.9 15.0 15.0 15.0 15.0 15.0 15.0 15.0 15.0 15.0 15.0 15.0 15.0 15.0 15.0 15.0 15.0 15.0 15.0 15.0 15.0 15.0 15.0 15.0 15.0 15.0 15.0 15.0 15.0 15.0 15.0 15.0 15.0 15.0 15.0 15.0 15.0 15.0 15.0 15.0
15.0 15.0 15.0 15.0 3.5 4.2 6.5 12.5 15.0 15.0 15.0 15.0 15.0 15.0 15.0 15.0 15.0 15.0 15.0 15.0 15.0 15.0 15.0 15.0 15.0 15.0 15.0 15.0 15.0 15.0 15.0 15.0 15.0 15.0 15.0 15.0 15.0 15.0 15.0 15.0 5.8 15.0 15.0 15.0 15.0 15.0 15.0
15.0 15.0 13.4 11.9 4.2 3.5 9.0 15.0 15.0 15.0 15.0 15.0 15.0 15.0 15.0 15.0 15.0 15.0 15.0 15.0 15.0 15.0 15.0 15.0 15.0 15.0 15.0 15.0 15.0 15.0 15.0 15.0 15.0 15.0 15.0 15.0 15.0 15.0 15.0 15.0 15.0 15.0 15.0 15.0 15.0 15.0 15.0